TimeCDT,TemperatureF,Dew PointF,Humidity,Sea Level PressureIn,VisibilityMPH,Wind Direction,Wind SpeedMPH,Gust SpeedMPH,PrecipitationIn,Events,Conditions,WindDirDegrees,DateUTC
12:54 AM,37.9,32.0,79,29.91,10.0,ESE,8.1,-,0.00,Rain,Light Rain,110,2013-04-14 05:54:00
1:54 AM,37.0,33.1,86,29.88,7.0,ESE,13.8,-,0.15,Rain,Light Rain,110,2013-04-14 06:54:00
2:54 AM,37.0,34.0,89,29.88,10.0,ESE,16.1,19.6,0.03,,Overcast,110,2013-04-14 07:54:00
3:54 AM,36.0,33.1,89,29.86,10.0,East,9.2,-,0.00,Rain,Light Rain,100,2013-04-14 08:54:00
4:54 AM,36.0,33.1,89,29.83,10.0,East,15.0,-,0.07,Rain,Light Rain,100,2013-04-14 09:54:00
5:54 AM,36.0,33.1,89,29.82,7.0,East,16.1,-,0.06,Rain,Light Rain,100,2013-04-14 10:54:00
6:54 AM,35.6,33.8,93,29.74,10.0,East,19.6,-,N/A,,Overcast,100,2013-04-14 11:54:00
7:54 AM,37.0,33.1,86,29.75,10.0,East,16.1,-,0.00,Rain,Light Rain,90,2013-04-14 12:54:00
8:54 AM,37.9,34.0,86,29.74,10.0,East,18.4,-,0.00,,Overcast,100,2013-04-14 13:54:00
9:54 AM,39.0,35.1,86,29.71,10.0,ESE,20.7,27.6,0.00,Rain,Light Rain,110,2013-04-14 14:54:00
10:54 AM,39.9,37.0,89,29.68,8.0,East,19.6,31.1,0.01,Rain,Light Rain,100,2013-04-14 15:54:00
11:54 AM,45.0,41.0,86,29.62,10.0,ESE,24.2,31.1,0.02,Rain,Light Rain,120,2013-04-14 16:54:00
12:54 PM,50.0,43.0,77,29.57,10.0,ESE,23.0,29.9,0.00,,Clear,120,2013-04-14 17:54:00
1:54 PM,53.1,45.0,74,29.55,10.0,ESE,13.8,23.0,N/A,,Partly Cloudy,120,2013-04-14 18:54:00
2:54 PM,59.0,48.9,69,29.51,10.0,ESE,16.1,-,0.00,Rain,Light Rain,110,2013-04-14 19:54:00
3:54 PM,61.0,52.0,72,29.46,10.0,ESE,10.4,-,0.01,Rain,Light Rain,120,2013-04-14 20:54:00
4:54 PM,62.1,54.0,75,29.45,10.0,SSE,11.5,-,0.04,Rain,Light Rain,160,2013-04-14 21:54:00
5:54 PM,60.1,55.0,83,29.45,6.0,SSE,10.4,-,0.08,Rain,Light Rain,150,2013-04-14 22:54:00
6:54 PM,59.0,55.0,87,29.47,5.0,SSW,18.4,26.5,0.05,Rain,Rain,210,2013-04-14 23:54:00
7:22 PM,55.4,53.6,94,29.49,2.0,WSW,20.7,36.8,0.23,Rain,Heavy Rain,250,2013-04-15 00:22:00
7:31 PM,55.4,53.6,94,29.50,5.0,WSW,15.0,25.3,0.27,Rain,Light Rain,250,2013-04-15 00:31:00
7:54 PM,54.0,52.0,93,29.52,8.0,South,8.1,-,0.32,Rain,Light Rain,180,2013-04-15 00:54:00
8:54 PM,54.0,52.0,93,29.57,5.0,South,10.4,-,0.10,Rain,Light Rain,170,2013-04-15 01:54:00
9:15 PM,53.6,51.8,94,29.56,10.0,Variable,4.6,-,0.02,Rain,Light Rain,0,2013-04-15 02:15:00
9:54 PM,53.1,45.0,74,29.59,10.0,WNW,12.7,19.6,0.02,,Overcast,290,2013-04-15 02:54:00
10:54 PM,51.1,44.1,77,29.62,10.0,WSW,4.6,-,N/A,,Overcast,250,2013-04-15 03:54:00
11:54 PM,48.9,42.1,77,29.65,10.0,West,5.8,-,N/A,,Overcast,280,2013-04-15 04:54:00